When you browse on this site, cookies collect data to enhance your experience and personalize the content and advertising you see.
Visit our Privacy Policy to learn more. By continuing to use the site, you agree to this use of cookies and data.
  • In Deutschland
  • Länderverzeichnis
  • Für 7 Tage
  • Wassertemperatur
  • Wetterkarte
  • Widgets
  • user-avatar
    Anmelden

    Stündliche Wetter Oksford

    Heute, 1 Juni, Montag

    Zeit Temperatur Niederschläge Wind Luftdruck Luftfeuchtigkeit
    00:00 +8°C° 0 mm 4 m/S 762 mmHg 89%
    01:00 +7°C° 0 mm 4 m/S 762 mmHg 91%
    02:00 +8°C° 0 mm 3 m/S 762 mmHg 94%
    03:00 +8°C° 0 mm 3 m/S 761 mmHg 96%
    04:00 +9°C° 0 mm 3 m/S 762 mmHg 94%
    05:00 +10°C° 0 mm 4 m/S 762 mmHg 93%
    06:00 +11°C° 0 mm 4 m/S 762 mmHg 90%
    07:00 +13°C° 0 mm 4 m/S 762 mmHg 85%
    08:00 +15°C° 0 mm 4 m/S 762 mmHg 79%
    09:00 +18°C° 0 mm 4 m/S 762 mmHg 74%
    10:00 +19°C° 0 mm 4 m/S 762 mmHg 71%
    11:00 +20°C° 0 mm 5 m/S 762 mmHg 68%
    12:00 +21°C° 0 mm 4 m/S 761 mmHg 62%
    13:00 +21°C° 0 mm 4 m/S 761 mmHg 63%
    14:00 +22°C° 0 mm 4 m/S 761 mmHg 63%
    15:00 +22°C° 0 mm 4 m/S 761 mmHg 64%
    16:00 +21°C° 0 mm 4 m/S 761 mmHg 68%
    17:00 +21°C° 0 mm 4 m/S 761 mmHg 73%
    18:00 +20°C° 0 mm 4 m/S 761 mmHg 77%
    19:00 +18°C° 0 mm 3 m/S 761 mmHg 82%
    20:00 +17°C° 0 mm 3 m/S 761 mmHg 88%
    21:00 +14°C° 0 mm 3 m/S 761 mmHg 93%
    22:00 +13°C° 0 mm 3 m/S 761 mmHg 93%
    23:00 +13°C° 0 mm 2 m/S 761 mmHg 94%

    Morgen, 2 Juni, Dienstag

    Zeit Temperatur Niederschläge Wind Luftdruck Luftfeuchtigkeit
    00:00 +12°C° 0 mm 2 m/S 761 mmHg 94%
    01:00 +10°C° 0 mm 2 m/S 761 mmHg 94%
    02:00 +10°C° 0 mm 2 m/S 761 mmHg 93%
    03:00 +9°C° 0 mm 2 m/S 761 mmHg 93%
    04:00 +10°C° 0 mm 2 m/S 761 mmHg 91%
    05:00 +10°C° 0 mm 2 m/S 761 mmHg 88%
    06:00 +12°C° 0 mm 2 m/S 761 mmHg 86%
    07:00 +14°C° 0 mm 2 m/S 761 mmHg 79%
    08:00 +16°C° 0 mm 3 m/S 760 mmHg 72%
    09:00 +17°C° 0 mm 3 m/S 760 mmHg 65%
    10:00 +18°C° 0 mm 3 m/S 760 mmHg 62%
    11:00 +19°C° 0 mm 3 m/S 760 mmHg 60%
    12:00 +20°C° 0 mm 3 m/S 760 mmHg 57%
    13:00 +20°C° 0 mm 3 m/S 759 mmHg 57%
    14:00 +21°C° 0 mm 3 m/S 759 mmHg 57%
    15:00 +21°C° 0 mm 3 m/S 758 mmHg 57%
    16:00 +20°C° 0 mm 2 m/S 757 mmHg 61%
    17:00 +20°C° 0 mm 2 m/S 757 mmHg 66%
    18:00 +20°C° 0 mm 2 m/S 756 mmHg 70%
    19:00 +19°C° 0 mm 1 m/S 756 mmHg 74%
    20:00 +16°C° 0 mm 1 m/S 756 mmHg 77%
    21:00 +12°C° 0 mm 0 m/S 756 mmHg 81%
    22:00 +13°C° 0 mm 1 m/S 755 mmHg 80%
    23:00 +13°C° 0 mm 1 m/S 755 mmHg 80%

    übermorgen, 3 Juni, Mittwoch

    Zeit Temperatur Niederschläge Wind Luftdruck Luftfeuchtigkeit
    00:00 +13°C° 0 mm 1 m/S 755 mmHg 79%
    01:00 +13°C° 0 mm 1 m/S 754 mmHg 80%
    02:00 +13°C° 0 mm 1 m/S 753 mmHg 80%
    03:00 +13°C° 0 mm 2 m/S 753 mmHg 81%
    04:00 +13°C° 0 mm 2 m/S 752 mmHg 80%
    05:00 +14°C° 0 mm 2 m/S 752 mmHg 78%
    06:00 +13°C° 0 mm 3 m/S 751 mmHg 77%
    07:00 +13°C° 0.2 mm 3 m/S 751 mmHg 80%
    08:00 +13°C° 0.2 mm 3 m/S 751 mmHg 83%
    09:00 +13°C° 0.2 mm 3 m/S 751 mmHg 86%
    10:00 +13°C° 0.4 mm 4 m/S 751 mmHg 87%
    11:00 +13°C° 0.4 mm 4 m/S 751 mmHg 89%
    12:00 +13°C° 0.4 mm 4 m/S 751 mmHg 90%
    13:00 +13°C° 0.1 mm 5 m/S 751 mmHg 88%
    14:00 +13°C° 0.1 mm 5 m/S 750 mmHg 86%
    15:00 +13°C° 0.1 mm 6 m/S 750 mmHg 84%
    16:00 +13°C° 0 mm 5 m/S 750 mmHg 84%
    17:00 +12°C° 0 mm 5 m/S 750 mmHg 83%
    18:00 +12°C° 0 mm 5 m/S 750 mmHg 83%
    19:00 +12°C° 0 mm 5 m/S 750 mmHg 83%
    20:00 +11°C° 0 mm 4 m/S 750 mmHg 83%
    21:00 +11°C° 0 mm 4 m/S 751 mmHg 83%
    22:00 +10°C° 0 mm 4 m/S 750 mmHg 86%
    23:00 +10°C° 0 mm 4 m/S 750 mmHg 89%

    4 Juni, Donnerstag

    Zeit Temperatur Niederschläge Wind Luftdruck Luftfeuchtigkeit
    00:00 +8°C° 0 mm 4 m/S 750 mmHg 92%
    01:00 +7°C° 0 mm 4 m/S 750 mmHg 93%
    02:00 +7°C° 0 mm 4 m/S 750 mmHg 95%
    03:00 +7°C° 0 mm 4 m/S 749 mmHg 97%
    04:00 +8°C° 0 mm 4 m/S 749 mmHg 93%
    05:00 +8°C° 0 mm 5 m/S 749 mmHg 89%
    06:00 +9°C° 0 mm 5 m/S 749 mmHg 85%
    07:00 +10°C° 0 mm 5 m/S 749 mmHg 79%
    08:00 +10°C° 0 mm 5 m/S 749 mmHg 72%
    09:00 +12°C° 0 mm 5 m/S 749 mmHg 65%
    10:00 +12°C° 0.1 mm 5 m/S 748 mmHg 65%
    11:00 +13°C° 0.1 mm 6 m/S 748 mmHg 64%
    12:00 +13°C° 0.1 mm 6 m/S 748 mmHg 63%
    13:00 +13°C° 0.1 mm 5 m/S 747 mmHg 64%
    14:00 +14°C° 0.1 mm 5 m/S 747 mmHg 64%
    15:00 +14°C° 0.1 mm 5 m/S 747 mmHg 64%
    16:00 +13°C° 0.2 mm 4 m/S 747 mmHg 69%
    17:00 +13°C° 0.2 mm 4 m/S 746 mmHg 73%
    18:00 +13°C° 0.2 mm 3 m/S 746 mmHg 78%
    19:00 +11°C° 0.2 mm 3 m/S 746 mmHg 82%
    20:00 +10°C° 0.2 mm 3 m/S 746 mmHg 87%
    21:00 +9°C° 0.2 mm 3 m/S 747 mmHg 91%
    22:00 +9°C° 0.4 mm 2 m/S 746 mmHg 93%
    23:00 +8°C° 0.4 mm 2 m/S 746 mmHg 94%

    5 Juni, Freitag

    Zeit Temperatur Niederschläge Wind Luftdruck Luftfeuchtigkeit
    00:00 +8°C° 0.4 mm 2 m/S 746 mmHg 95%
    01:00 +7°C° 0 mm 2 m/S 746 mmHg 95%
    02:00 +6°C° 0 mm 2 m/S 746 mmHg 94%
    03:00 +5°C° 0 mm 2 m/S 746 mmHg 93%
    04:00 +5°C° 0 mm 3 m/S 747 mmHg 92%
    05:00 +5°C° 0 mm 3 m/S 747 mmHg 90%
    06:00 +7°C° 0 mm 3 m/S 747 mmHg 89%
    07:00 +8°C° 0 mm 4 m/S 747 mmHg 80%
    08:00 +11°C° 0 mm 4 m/S 747 mmHg 71%
    09:00 +12°C° 0 mm 4 m/S 747 mmHg 62%
    10:00 +13°C° 0.1 mm 5 m/S 747 mmHg 64%
    11:00 +14°C° 0.1 mm 5 m/S 747 mmHg 66%
    12:00 +14°C° 0.1 mm 5 m/S 747 mmHg 68%
    13:00 +14°C° 0.2 mm 5 m/S 746 mmHg 70%
    14:00 +14°C° 0.2 mm 6 m/S 746 mmHg 71%
    15:00 +13°C° 0.2 mm 6 m/S 746 mmHg 72%
    16:00 +13°C° 0 mm 6 m/S 746 mmHg 71%
    17:00 +13°C° 0 mm 6 m/S 745 mmHg 70%
    18:00 +13°C° 0 mm 5 m/S 745 mmHg 69%
    19:00 +12°C° 0 mm 5 m/S 745 mmHg 75%
    20:00 +11°C° 0 mm 4 m/S 745 mmHg 81%
    21:00 +10°C° 0 mm 4 m/S 745 mmHg 87%
    22:00 +10°C° 0.2 mm 4 m/S 745 mmHg 90%
    23:00 +10°C° 0.2 mm 4 m/S 745 mmHg 93%

    6 Juni, Samstag

    Zeit Temperatur Niederschläge Wind Luftdruck Luftfeuchtigkeit
    00:00 +10°C° 0.2 mm 4 m/S 745 mmHg 96%
    01:00 +10°C° 0.1 mm 4 m/S 745 mmHg 95%
    02:00 +8°C° 0.1 mm 4 m/S 745 mmHg 95%
    03:00 +8°C° 0.1 mm 4 m/S 745 mmHg 95%
    04:00 +8°C° 0 mm 4 m/S 745 mmHg 94%
    05:00 +8°C° 0 mm 5 m/S 745 mmHg 93%
    06:00 +9°C° 0 mm 5 m/S 745 mmHg 92%
    07:00 +10°C° 0.1 mm 5 m/S 746 mmHg 87%
    08:00 +11°C° 0.1 mm 6 m/S 746 mmHg 81%
    09:00 +12°C° 0.1 mm 7 m/S 746 mmHg 75%
    10:00 +12°C° 0.1 mm 7 m/S 747 mmHg 68%
    11:00 +14°C° 0.1 mm 7 m/S 747 mmHg 61%
    12:00 +14°C° 0.1 mm 7 m/S 747 mmHg 54%
    13:00 +14°C° 0 mm 7 m/S 747 mmHg 54%
    14:00 +14°C° 0 mm 7 m/S 747 mmHg 54%
    15:00 +14°C° 0 mm 7 m/S 747 mmHg 55%
    16:00 +13°C° 0.2 mm 6 m/S 747 mmHg 61%
    17:00 +11°C° 0.2 mm 6 m/S 747 mmHg 67%
    18:00 +10°C° 0.2 mm 6 m/S 747 mmHg 73%
    19:00 +9°C° 0 mm 5 m/S 748 mmHg 76%
    20:00 +7°C° 0 mm 4 m/S 748 mmHg 80%
    21:00 +5°C° 0 mm 4 m/S 749 mmHg 83%
    22:00 +5°C° 0 mm 4 m/S 749 mmHg 84%
    23:00 +4°C° 0 mm 4 m/S 749 mmHg 85%
    Mehr zeigen